FW6463 Weather Reports


time (UTC)temp
C
wind
direction
speed
KPH
gust
KPH
rain 1hr
cm
rain 24hr
cm
rain mn
cm
humidity
%
barometer
mb
20260504050020 5 185 1.6 3.2 0.00 0.43 0.00 84 1017.8
20260504045044 5 180 1.6 3.2 0.00 0.43 0.00 83 1017.9
20260504044029 5 183 1.6 3.2 0.00 0.43 0.00 83 1017.9
20260504043015 5 180 3.2 3.2 0.00 0.43 0.00 81 1017.8
20260504042020 6 182 3.2 3.2 0.00 0.43 0.00 79 1017.9
20260504041025 5 191 1.6 3.2 0.00 0.43 0.00 83 1017.8
20260504040030 5 199 1.6 3.2 0.00 0.43 0.00 84 1017.8
20260504035017 5 172 1.6 3.2 0.00 0.43 0.43 83 1017.8
20260504034022 5 179 1.6 3.2 0.00 0.43 0.43 83 1017.8
20260504033026 5 0.0 0.0 0.00 0.43 0.43 85 1017.8
20260504032031 5 0.0 0.0 0.00 0.43 0.43 86 1017.8
20260504031038 5 0.0 0.0 0.00 0.43 0.43 87 1017.8
20260504030023 5 0.0 0.0 0.00 0.43 0.43 86 1017.6
20260504025047 5 0.0 0.0 0.00 0.43 0.43 85 1017.7
20260504024032 5 0.0 0.0 0.00 0.43 0.43 86 1017.8
20260504023019 5 0.0 0.0 0.00 0.43 0.43 82 1017.8
20260504022024 6 168 3.2 3.2 0.00 0.43 0.43 82 1017.6
20260504021049 6 172 1.6 3.2 0.00 0.43 0.43 83 1017.6
20260504020015 6 0.0 0.0 0.00 0.43 0.43 80 1017.6
20260504015021 6 170 1.6 3.2 0.00 0.43 0.43 80 1017.4
20260504014047 6 0.0 0.0 0.00 0.43 0.43 77 1017.3
20260504013029 7 0.0 0.0 0.00 0.43 0.43 74 1017.4
20260504012017 7 167 0.0 3.2 0.00 0.43 0.43 74 1017.3
20260504011021 8 0.0 0.0 0.00 0.43 0.43 72 1017.2
20260504010027 8 180 0.0 3.2 0.00 0.43 0.43 68 1017.1
20260504005025 10 172 3.2 4.8 0.00 0.43 0.43 63 1017.0
20260504004017 10 181 3.2 4.8 0.00 0.43 0.43 58 1016.9
20260504003022 11 183 3.2 6.4 0.00 0.43 0.43 57 1016.9
20260504002022 11 208 3.2 6.4 0.00 0.43 0.43 55 1016.9
20260504001019 12 197 1.6 3.2 0.00 0.43 0.43 54 1016.8
20260504000018 13 259 3.2 6.4 0.00 0.43 0.43 49 1016.6
20260503235017 13 275 8.0 12.9 0.00 0.43 0.43 47 1016.6
20260503234015 13 277 8.0 14.5 0.00 0.43 0.43 47 1016.6
20260503233032 15 288 6.4 11.3 0.00 0.43 0.43 46 1016.6
20260503232020 15 269 6.4 9.7 0.00 0.43 0.43 43 1016.5
20260503231024 15 272 8.0 14.5 0.00 0.43 0.43 43 1016.4
20260503230029 16 270 9.7 19.3 0.00 0.43 0.43 42 1016.4
20260503225016 16 305 9.7 16.1 0.00 0.43 0.43 43 1016.4
20260503224102 15 243 8.0 11.3 0.00 0.43 0.43 43 1016.4
20260503223026 15 274 8.0 12.9 0.00 0.43 0.43 43 1016.4
20260503222030 16 287 9.7 14.5 0.00 0.43 0.43 43 1016.4
20260503221017 16 254 8.0 14.5 0.00 0.43 0.43 42 1016.4
20260503220021 16 301 6.4 12.9 0.00 0.43 0.43 42 1016.4
20260503215026 16 286 6.4 12.9 0.00 0.43 0.43 42 1016.4
20260503214031 17 273 9.7 14.5 0.00 0.43 0.43 40 1016.4
20260503213019 17 266 8.0 12.9 0.00 0.43 0.43 41 1016.5
20260503212043 17 275 11.3 24.1 0.00 0.43 0.43 41 1016.3
20260503211028 16 309 8.0 16.1 0.00 0.43 0.43 43 1016.4
20260503210032 17 279 8.0 14.5 0.00 0.43 0.43 42 1016.5
20260503205059 16 284 8.0 14.5 0.00 0.43 0.43 43 1016.5
20260503204024 17 252 11.3 20.9 0.00 0.43 0.43 43 1016.5
20260503203028 17 327 9.7 12.9 0.00 0.43 0.43 43 1016.5
20260503202032 17 288 12.9 20.9 0.00 0.43 0.43 41 1016.7
20260503201019 16 282 12.9 17.7 0.00 0.43 0.43 42 1016.8
20260503200025 16 261 11.3 17.7 0.00 0.43 0.43 42 1017.0
20260503195029 16 288 14.5 25.7 0.00 0.43 0.43 42 1017.2
20260503194036 17 249 14.5 17.7 0.00 0.43 0.43 42 1017.3
20260503193020 16 283 11.3 17.7 0.00 0.43 0.43 42 1017.4
20260503192025 16 308 11.3 17.7 0.00 0.43 0.43 44 1017.6
20260503191030 16 334 9.7 19.3 0.00 0.43 0.43 42 1017.6
20260503190016 16 275 16.1 29.0 0.00 0.43 0.43 43 1017.6
20260503185021 17 277 12.9 16.1 0.00 0.43 0.43 42 1017.7
20260503184025 16 268 14.5 22.5 0.00 0.43 0.43 43 1017.8
20260503183052 16 331 14.5 25.7 0.00 0.43 0.43 43 1017.9
20260503182038 16 275 11.3 20.9 0.00 0.43 0.43 43 1017.9
20260503181022 15 293 11.3 19.3 0.00 0.43 0.43 43 1018.1
20260503180027 15 304 11.3 17.7 0.00 0.43 0.43 42 1018.1
20260503175031 15 348 12.9 27.4 0.00 0.43 0.43 42 1018.1
20260503174018 15 339 14.5 20.9 0.00 0.43 0.43 42 1018.1
20260503173023 15 320 11.3 19.3 0.00 0.43 0.43 44 1018.1
20260503172028 15 286 16.1 24.1 0.00 0.43 0.43 43 1018.3
20260503171047 14 295 12.9 24.1 0.00 0.43 0.43 44 1018.6
20260503131021 7 311 9.7 14.5 0.00 0.43 0.43 66 1019.8
20260503110109 1 0.0 0.0 0.00 0.43 0.43 87 1019.0
20260503081020 0 0.0 0.0 0.43 0.43 0.43 90 1017.4
20260503072026 0 227 1.6 3.2 0.00 0.00 0.00 90 1017.1
20260503071031 0 316 1.6 4.8 0.00 0.00 0.00 93 1016.9
20260503055032 3 291 3.2 4.8 0.00 0.00 0.00 79 1017.2